CFG524 EVRA-EDDH

Flight info

Callsign CFG524
Flight time N/A
Altitude 36000
Route VALED DCT ADAXA DCT NINTA DCT BAGOS N850 BOGMU BOGMU3P
Aircraft A20N/M-SDE2E3FGHIRWXY/LB1

Departure

Time N/A
Airport Riga International Airport (EVRA)

Arrival

Time 2026-04-24 19:52
Airport Hamburg Helmut Schmidt Airport (EDDH)
Time Latitude Longitude Altitude Speed Heading
2026-04-24 18:54 55.95967 16.97445 35951 ft 427 kts 255°
2026-04-24 18:55 55.92812 16.82624 35966 ft 427 kts 255°
2026-04-24 18:56 55.90701 16.72776 35963 ft 426 kts 255°
2026-04-24 18:56 55.88595 16.62978 35946 ft 423 kts 255°
2026-04-24 18:57 55.86485 16.53223 35951 ft 423 kts 256°
2026-04-24 18:57 55.84361 16.43444 35933 ft 422 kts 255°
2026-04-24 18:58 55.82238 16.33706 35940 ft 422 kts 255°
2026-04-24 18:58 55.80124 16.24071 35930 ft 421 kts 255°
2026-04-24 18:59 55.78005 16.14449 35920 ft 420 kts 255°
2026-04-24 18:59 55.75877 16.04829 35923 ft 418 kts 255°
2026-04-24 19:00 55.74102 15.96855 35916 ft 418 kts 255°
2026-04-24 19:00 55.71611 15.85681 35920 ft 419 kts 255°
2026-04-24 19:01 55.69459 15.76088 35933 ft 418 kts 255°
2026-04-24 19:01 55.67318 15.66593 35918 ft 419 kts 255°
2026-04-24 19:02 55.65523 15.58657 35917 ft 419 kts 255°
2026-04-24 19:02 55.62980 15.47468 35927 ft 420 kts 255°
2026-04-24 19:03 55.60796 15.37911 35928 ft 420 kts 255°
2026-04-24 19:03 55.58608 15.28384 35928 ft 420 kts 254°
2026-04-24 19:04 55.56403 15.18820 35932 ft 421 kts 254°
2026-04-24 19:04 55.54188 15.09250 35951 ft 420 kts 254°
2026-04-24 19:05 55.51985 14.99782 35944 ft 421 kts 254°
2026-04-24 19:05 55.49770 14.90297 35931 ft 419 kts 254°
2026-04-24 19:06 55.47535 14.80773 35929 ft 420 kts 254°
2026-04-24 19:06 55.45308 14.71320 35935 ft 420 kts 253°
2026-04-24 19:07 55.43069 14.61869 35936 ft 421 kts 254°
2026-04-24 19:07 55.41192 14.53970 35940 ft 421 kts 253°
2026-04-24 19:08 55.38553 14.42916 35945 ft 421 kts 253°
2026-04-24 19:08 55.36287 14.33473 35943 ft 421 kts 253°
2026-04-24 19:09 55.34017 14.24051 35946 ft 423 kts 252°
2026-04-24 19:09 55.31725 14.14580 35943 ft 424 kts 252°
2026-04-24 19:10 55.29417 14.05086 35947 ft 424 kts 252°
2026-04-24 19:10 55.27105 13.95609 35950 ft 424 kts 252°
2026-04-24 19:11 55.24795 13.86189 35954 ft 424 kts 252°
2026-04-24 19:11 55.22458 13.76699 35960 ft 424 kts 252°
2026-04-24 19:12 55.20110 13.67205 35961 ft 425 kts 252°
2026-04-24 19:12 55.17777 13.57809 35965 ft 425 kts 252°
2026-04-24 19:13 55.15821 13.49966 35959 ft 425 kts 252°
2026-04-24 19:13 55.13062 13.38945 35965 ft 425 kts 252°
2026-04-24 19:14 55.10692 13.29525 35968 ft 425 kts 251°
2026-04-24 19:14 55.08303 13.20067 35972 ft 426 kts 251°
2026-04-24 19:15 55.05916 13.10654 35978 ft 426 kts 251°
2026-04-24 19:15 55.03508 13.01206 35978 ft 426 kts 251°
2026-04-24 19:16 54.99892 12.87082 35976 ft 427 kts 251°
2026-04-24 19:16 54.97479 12.77709 35979 ft 428 kts 251°
2026-04-24 19:17 54.95034 12.68261 35667 ft 427 kts 251°
2026-04-24 19:17 54.93815 12.63588 35434 ft 426 kts 249°
2026-04-24 19:17 54.92344 12.59132 35201 ft 428 kts 243°
2026-04-24 19:18 54.90725 12.54841 34970 ft 426 kts 242°
2026-04-24 19:18 54.89090 12.50573 34735 ft 424 kts 242°
2026-04-24 19:18 54.87475 12.46359 34493 ft 423 kts 242°
2026-04-24 19:18 54.85843 12.42089 34232 ft 423 kts 243°
2026-04-24 19:19 54.84223 12.37839 33972 ft 423 kts 242°
2026-04-24 19:19 54.82617 12.33630 33716 ft 424 kts 242°
2026-04-24 19:19 54.80989 12.29368 33457 ft 426 kts 242°
2026-04-24 19:19 54.79344 12.25061 33195 ft 427 kts 242°
2026-04-24 19:20 54.77720 12.20814 32940 ft 428 kts 241°
2026-04-24 19:20 54.76067 12.16496 32688 ft 429 kts 241°
2026-04-24 19:20 54.74428 12.12229 32435 ft 430 kts 241°
2026-04-24 19:20 54.72773 12.07924 32181 ft 431 kts 241°
2026-04-24 19:21 54.71107 12.03598 31922 ft 432 kts 241°
2026-04-24 19:21 54.69448 11.99294 31661 ft 433 kts 241°
2026-04-24 19:21 54.67799 11.95024 31400 ft 433 kts 241°
2026-04-24 19:21 54.66116 11.90673 31135 ft 434 kts 241°
2026-04-24 19:22 54.65002 11.87798 30962 ft 435 kts 241°
2026-04-24 19:22 54.62751 11.82003 30612 ft 436 kts 240°
2026-04-24 19:22 54.61079 11.77706 30345 ft 437 kts 241°
2026-04-24 19:22 54.59386 11.73364 30073 ft 437 kts 241°
2026-04-24 19:23 54.57673 11.68977 29799 ft 438 kts 241°
2026-04-24 19:23 54.55986 11.64662 29530 ft 439 kts 240°
2026-04-24 19:23 54.54323 11.60413 29264 ft 440 kts 240°
2026-04-24 19:23 54.52562 11.55926 28986 ft 441 kts 240°
2026-04-24 19:24 54.50870 11.51622 28719 ft 441 kts 240°
2026-04-24 19:24 54.49132 11.47207 28446 ft 442 kts 240°
2026-04-24 19:24 54.47422 11.42874 28013 ft 444 kts 240°
2026-04-24 19:24 54.45685 11.38478 27240 ft 445 kts 240°
2026-04-24 19:25 54.43948 11.34091 26342 ft 447 kts 239°
2026-04-24 19:25 54.42218 11.29729 25388 ft 448 kts 239°
2026-04-24 19:25 54.40468 11.25325 24394 ft 450 kts 239°
2026-04-24 19:25 54.38718 11.20928 23358 ft 453 kts 239°
2026-04-24 19:26 54.36933 11.16446 22462 ft 452 kts 239°
2026-04-24 19:26 54.35194 11.12095 21826 ft 446 kts 239°
2026-04-24 19:26 54.33437 11.07707 21160 ft 441 kts 239°
2026-04-24 19:26 54.31729 11.03447 20568 ft 434 kts 239°
2026-04-24 19:27 54.30012 10.99331 19985 ft 420 kts 237°
2026-04-24 19:27 54.28282 10.95496 19264 ft 400 kts 237°
2026-04-24 19:27 54.26626 10.91832 18606 ft 379 kts 237°
2026-04-24 19:27 54.25055 10.88352 17990 ft 360 kts 237°
2026-04-24 19:28 54.23576 10.85074 17416 ft 344 kts 237°
2026-04-24 19:28 54.22126 10.81857 16840 ft 341 kts 238°
2026-04-24 19:28 54.20681 10.78656 16355 ft 338 kts 238°
2026-04-24 19:28 54.19259 10.75514 15939 ft 335 kts 238°
2026-04-24 19:29 54.16440 10.69301 15059 ft 331 kts 238°
2026-04-24 19:29 54.15029 10.66200 14607 ft 329 kts 238°
2026-04-24 19:29 54.13640 10.63144 14173 ft 327 kts 238°
2026-04-24 19:30 54.12243 10.60081 13724 ft 325 kts 238°
2026-04-24 19:30 54.10858 10.57049 13277 ft 324 kts 238°
2026-04-24 19:30 54.09481 10.54037 12841 ft 321 kts 238°
2026-04-24 19:30 54.08112 10.51047 12413 ft 319 kts 238°
2026-04-24 19:31 54.06758 10.48093 12082 ft 317 kts 238°
2026-04-24 19:31 54.05403 10.45138 11801 ft 317 kts 238°
2026-04-24 19:31 54.04054 10.42199 11559 ft 316 kts 238°
2026-04-24 19:31 54.02705 10.39265 11348 ft 315 kts 238°
2026-04-24 19:32 54.01354 10.36331 11160 ft 315 kts 238°
2026-04-24 19:32 54.00019 10.33439 10981 ft 311 kts 237°
2026-04-24 19:32 53.98700 10.30590 10798 ft 295 kts 237°
2026-04-24 19:32 53.97470 10.27966 10691 ft 279 kts 237°
2026-04-24 19:33 53.96269 10.25513 10594 ft 267 kts 236°
2026-04-24 19:33 53.95011 10.23222 10463 ft 263 kts 222°
2026-04-24 19:33 53.93310 10.22142 10324 ft 271 kts 185°
2026-04-24 19:33 53.91466 10.22863 10021 ft 279 kts 148°
2026-04-24 19:34 53.89920 10.24942 9742 ft 299 kts 140°
2026-04-24 19:34 53.88090 10.26776 9422 ft 304 kts 165°
2026-04-24 19:34 53.86046 10.27150 9122 ft 295 kts 192°
2026-04-24 19:34 53.84157 10.26040 8787 ft 281 kts 219°
2026-04-24 19:35 53.82708 10.23937 8372 ft 274 kts 231°
2026-04-24 19:35 53.81410 10.21601 8029 ft 270 kts 233°
2026-04-24 19:35 53.80180 10.19309 7861 ft 261 kts 234°
2026-04-24 19:35 53.78982 10.17080 7690 ft 253 kts 234°
2026-04-24 19:36 53.77794 10.14888 7417 ft 249 kts 234°
2026-04-24 19:36 53.76650 10.12724 7139 ft 246 kts 236°
2026-04-24 19:36 53.75706 10.10390 7109 ft 240 kts 250°
2026-04-24 19:36 53.75036 10.07813 7101 ft 236 kts 260°
2026-04-24 19:37 53.74996 10.05157 7101 ft 224 kts 291°
2026-04-24 19:37 53.75794 10.02999 7104 ft 217 kts 322°
2026-04-24 19:37 53.77161 10.01990 7111 ft 220 kts 353°
2026-04-24 19:37 53.78666 10.02461 7114 ft 230 kts 23°
2026-04-24 19:38 53.79870 10.04303 7118 ft 242 kts 47°
2026-04-24 19:38 53.80782 10.06694 7112 ft 244 kts 53°
2026-04-24 19:38 53.81621 10.09168 7111 ft 243 kts 54°
2026-04-24 19:38 53.82457 10.11684 7108 ft 243 kts 54°
2026-04-24 19:39 53.83281 10.14177 7102 ft 244 kts 54°
2026-04-24 19:39 53.84170 10.16584 7096 ft 241 kts 49°
2026-04-24 19:39 53.85131 10.18893 7096 ft 241 kts 47°
2026-04-24 19:39 53.86105 10.21191 7097 ft 241 kts 47°
2026-04-24 19:40 53.87085 10.23496 7092 ft 242 kts 47°
2026-04-24 19:40 53.88074 10.25822 7089 ft 240 kts 47°
2026-04-24 19:40 53.89031 10.28079 6895 ft 237 kts 47°
2026-04-24 19:40 53.89998 10.30356 6545 ft 238 kts 47°
2026-04-24 19:41 53.90957 10.32613 6228 ft 237 kts 47°
2026-04-24 19:41 53.91907 10.34853 5924 ft 235 kts 47°
2026-04-24 19:41 53.92865 10.37122 5608 ft 235 kts 49°
2026-04-24 19:41 53.93489 10.39691 5258 ft 248 kts 77°
2026-04-24 19:42 53.93259 10.42594 5016 ft 255 kts 110°
2026-04-24 19:42 53.92199 10.44955 4817 ft 254 kts 142°
2026-04-24 19:42 53.90594 10.46126 4526 ft 249 kts 176°
2026-04-24 19:42 53.88923 10.45835 4165 ft 244 kts 202°
2026-04-24 19:43 53.87345 10.44809 3957 ft 246 kts 208°
2026-04-24 19:43 53.85788 10.43545 3953 ft 245 kts 214°
2026-04-24 19:43 53.84419 10.42079 3940 ft 226 kts 225°
2026-04-24 19:43 53.83312 10.40319 3932 ft 206 kts 237°
2026-04-24 19:44 53.82470 10.38520 3925 ft 189 kts 242°
2026-04-24 19:44 53.81707 10.36781 3931 ft 182 kts 242°
2026-04-24 19:44 53.80946 10.35071 3948 ft 183 kts 241°
2026-04-24 19:44 53.80159 10.33364 3956 ft 183 kts 240°
2026-04-24 19:45 53.79366 10.31699 3963 ft 183 kts 239°
2026-04-24 19:45 53.78573 10.30088 4012 ft 169 kts 239°
2026-04-24 19:45 53.77794 10.28513 3992 ft 176 kts 239°
2026-04-24 19:45 53.77039 10.27013 3959 ft 159 kts 239°
2026-04-24 19:46 53.76347 10.25651 3943 ft 149 kts 240°
2026-04-24 19:46 53.75684 10.24330 3766 ft 144 kts 241°
2026-04-24 19:46 53.75039 10.23039 3575 ft 144 kts 242°
2026-04-24 19:46 53.74401 10.21759 3378 ft 143 kts 242°
2026-04-24 19:47 53.73764 10.20482 3185 ft 143 kts 242°
2026-04-24 19:47 53.73118 10.19189 2988 ft 142 kts 242°
2026-04-24 19:47 53.72489 10.17932 2790 ft 141 kts 242°
2026-04-24 19:47 53.71867 10.16681 2600 ft 140 kts 242°
2026-04-24 19:48 53.71241 10.15422 2409 ft 139 kts 242°
2026-04-24 19:48 53.70626 10.14185 2228 ft 138 kts 242°
2026-04-24 19:48 53.69401 10.11717 1839 ft 136 kts 242°
2026-04-24 19:49 53.68205 10.09298 1477 ft 135 kts 240°
2026-04-24 19:49 53.67028 10.06922 1118 ft 128 kts 239°
2026-04-24 19:50 53.65323 10.03466 597 ft 130 kts 237°
2026-04-24 19:50 53.64749 10.02302 436 ft 127 kts 235°
2026-04-24 19:51 53.63634 10.00057 84 ft 127 kts 235°
2026-04-24 19:51 53.63121 9.98983 35 ft 83 kts 231°
2026-04-24 19:52 53.62727 9.98473 38 ft 5 kts 179°
2026-04-24 19:52 53.62712 9.98475 38 ft 9 kts 168°
2026-04-24 19:52 53.62717 9.98611 38 ft 15 kts 52°
2026-04-24 19:52 53.62791 9.98754 38 ft 16 kts 49°
2026-04-24 19:53 53.62881 9.98935 37 ft 24 kts 50°
2026-04-24 19:53 53.62962 9.99098 34 ft 7 kts 51°
2026-04-24 19:53 53.62986 9.99148 34 ft 3 kts 51°
2026-04-24 19:54 53.63006 9.99189 34 ft 8 kts 51°
2026-04-24 19:54 53.63122 9.99450 31 ft 28 kts 53°
2026-04-24 19:54 53.63182 9.99580 31 ft 0 kts 53°
2026-04-24 19:54 53.63195 9.99609 31 ft 7 kts 53°
2026-04-24 19:55 53.63217 9.99658 31 ft 0 kts 54°
2026-04-24 19:56 53.63254 9.99724 30 ft 12 kts 43°
2026-04-24 19:56 53.63329 9.99858 31 ft 18 kts 51°
2026-04-24 19:56 53.63408 10.00019 35 ft 4 kts 50°
2026-04-24 19:56 53.63408 10.00020 35 ft 0 kts 50°
2026-04-24 19:57 53.63422 10.00055 37 ft 8 kts 63°
2026-04-24 19:57 53.63419 10.00157 39 ft 11 kts 123°
2026-04-24 19:58 53.63348 10.00217 39 ft 5 kts 163°
2026-04-24 19:58 53.63329 10.00272 40 ft 8 kts 81°
2026-04-24 19:58 53.63332 10.00342 41 ft 0 kts 86°
2026-04-24 19:58 53.63332 10.00348 42 ft 0 kts 86°
2026-04-24 19:59 53.63332 10.00350 42 ft 0 kts 86°